[[{"header":{"parameterUnit":"m.s-1","parameterCategory":1,"la1":30.2991,"la2":30.254,"lo1":-89.0895,"lo2":-89.0444,"dy":0.0017,"dx":0.0017,"nx":28,"ny":28,"refTime":"2024-08-13T09:00:00:Z","depth":0,"parameterNumber":2,"parameterNumberName":"U-component_of_WINDS"},"data":[0,0,0,0,0,0,0,0,0,0,0,0,0,0,0,0,0,0,0,0,0,0,0,0,0,0,0,0,0,0,0,0,0,0,0,0,0,0,0,0,0,0,0,0,0,0,0,0,0,0,0,0,0,0,0,0,0,0,2.1394,2.1395,0,2.1537,2.1539,2.1541,2.1562,2.156,2.1559,2.1558,2.1702,2.1707,2.1712,0,0,0,0,0,0,0,0,0,0,0,0,0,2.1136,2.114,2.1394,2.1396,2.1397,2.1537,2.1539,2.1541,2.1562,2.156,2.1559,2.1557,2.17,2.1706,2.1713,0,0,0,0,0,0,0,0,0,0,0,0,0,2.126,2.1142,2.1393,2.1425,2.1429,2.1537,2.1539,2.1542,2.1562,2.156,2.1558,2.1556,2.1699,2.1706,2.1713,2.1799,0,0,2.1737,2.174,0,0,0,0,0,0,0,0,2.1253,2.127,2.1418,2.1423,2.1428,2.153,2.1501,2.1628,2.1563,2.1511,2.1558,2.1555,2.1646,2.1658,2.1689,2.1806,2.1812,2.1737,2.1742,2.1745,2.1747,0,0,0,0,0,0,0,2.1244,2.1264,2.1451,2.142,2.1426,2.1431,2.1446,2.1525,2.1588,2.1516,2.1518,2.1534,2.1648,2.1682,2.1693,2.1814,2.1737,2.1744,2.1748,2.1751,2.2009,2.2011,0,0,0,0,0,0,2.1231,2.1256,2.1446,2.1455,2.1334,2.1437,2.1454,2.1499,2.1587,2.1599,2.1536,2.1535,2.167,2.1684,2.1698,2.1804,2.1745,2.1752,2.1757,2.2007,2.2009,2.2012,0,0,0,0,0,0,2.1225,2.1247,2.144,2.1356,2.1381,2.1444,2.1493,2.1503,2.1536,2.1603,2.1614,2.1559,2.1669,2.1687,2.1774,2.1809,2.1756,2.1763,2.2004,2.2008,2.2011,2.2016,0,0,0,0,0,0,2.1217,2.1245,2.1279,2.1357,2.1386,2.1515,2.1495,2.1507,2.1549,2.1549,2.1627,2.1638,2.1669,2.1763,2.1782,2.1818,2.1768,2.2001,2.2006,2.201,2.2013,2.2019,2.2025,0,0,0,0,0,2.1208,2.1274,2.128,2.1303,2.1429,2.1517,2.1533,2.1568,2.1552,2.1586,2.1629,2.1635,2.1802,2.1771,2.1793,2.1832,2.1999,2.2004,2.2009,2.201,2.2018,2.2024,0,0,0,0,0,0,2.1197,2.1285,2.1293,2.1386,2.1444,2.152,2.1564,2.1575,2.1638,2.1635,2.1675,2.1692,2.1777,2.1814,2.1778,2.192,2.1899,2.1909,2.1893,2.1901,2.1906,2.1895,2.1775,0,0,0,0,0,2.1206,2.1271,2.1343,2.1419,2.1447,2.1501,2.154,2.1562,2.1623,2.1647,2.1697,2.1755,2.1821,2.1863,2.1927,2.2019,2.2036,2.2057,2.2063,2.2067,2.2074,2.2125,2.2135,2.2029,2.2029,2.2029,0,0,2.1224,2.128,2.1318,2.1418,2.1465,2.153,2.1521,2.159,2.1639,2.1658,2.1743,2.1781,2.1849,2.1938,2.198,2.1972,2.2108,2.2074,2.2077,2.2082,2.2131,2.2141,2.215,2.2032,2.2032,2.2031,0,0,2.129,2.1339,2.1407,2.1455,2.1528,2.1563,2.1579,2.1654,2.168,2.1767,2.1782,2.1841,2.1953,2.2001,2.2039,2.2125,2.2132,2.2145,2.2174,2.2223,2.2231,2.2239,2.2268,2.2278,2.2152,2.2152,2.2152,0,2.1302,2.1402,2.144,2.1509,2.1552,2.1574,2.1643,2.1688,2.1777,2.1805,2.1795,2.1937,2.1984,2.2085,2.2106,2.2137,2.2156,2.2135,2.2227,2.2235,2.2243,2.2271,2.2282,2.2153,2.2153,2.2153,2.2153,0,2.1414,2.1483,2.1529,2.1615,2.1664,2.1732,2.178,2.1825,2.1843,2.1879,2.1967,2.2025,2.2101,2.2127,2.2145,2.223,2.2222,2.2219,2.2198,2.2253,2.228,2.2291,2.2154,2.2154,2.2154,2.2153,0,0,2.1474,2.1583,2.1599,2.1638,2.172,2.1774,2.1843,2.1919,2.1956,2.2017,2.2075,2.2171,2.2168,2.2212,2.2237,2.228,2.2342,2.2271,2.2273,2.2281,2.2438,2.2439,2.2451,2.2349,2.2351,2.2353,2.2432,0,2.1549,2.1674,2.1711,2.1815,2.1879,2.1902,2.1962,2.2018,2.2054,2.2113,2.2153,2.2219,2.2212,2.2239,2.2282,2.2325,2.2374,2.232,2.2402,2.2404,2.2382,2.2465,2.2466,2.2538,2.2443,2.2445,2.2446,0,2.1651,2.1715,2.1827,2.1901,2.1929,2.1983,2.2055,2.2111,2.2176,2.2199,2.2249,2.227,2.2342,2.2319,2.2419,2.2381,2.2417,2.2444,2.2447,2.2455,2.2427,2.2473,2.2562,2.2572,2.2464,2.2462,2.2461,0,2.1682,2.1797,2.1878,2.1911,2.2001,2.2038,2.2076,2.2139,2.2182,2.2245,2.2274,2.2344,2.2382,2.2436,2.2475,2.2455,2.2571,2.2551,2.2591,2.259,2.2613,2.261,2.2706,2.2639,2.2638,2.2638,2.2638,0,2.176,2.1827,2.1893,2.1943,2.2018,2.2061,2.2134,2.2174,2.223,2.2287,2.2311,2.2364,2.2413,2.2472,2.2503,2.2581,2.2598,2.2618,2.2625,2.2615,2.2612,2.2637,2.2633,2.2641,2.2641,2.264,2.2639,0,2.1806,2.1854,2.1944,2.2022,2.2043,2.2095,2.2161,2.221,2.2248,2.232,2.2339,2.2398,2.2469,2.2514,2.2604,2.2625,2.2709,2.2716,2.2688,2.2691,2.2727,2.2722,2.2842,2.2859,2.2781,2.2782,2.2782,0,2.1852,2.1904,2.1988,2.2028,2.2068,2.2133,2.2178,2.2222,2.2267,2.2345,2.2384,2.2457,2.2518,2.263,2.268,2.275,2.2757,2.2794,2.2767,2.2755,2.2755,2.2751,2.2756,2.2797,2.2798,2.2799,2.2799,0,2.1927,2.1948,2.2012,2.2084,2.2137,2.2196,2.2254,2.2286,2.234,2.239,2.2463,2.2511,2.2604,2.2675,2.2749,2.2788,2.2802,2.2808,2.282,2.2809,2.279,2.28,2.2698,2.2804,2.2803,2.2803,2.2803,2.2803,2.1973,2.202,2.2087,2.2157,2.2207,2.2261,2.2311,2.2356,2.2418,2.2498,2.252,2.2597,2.2661,2.2761,2.2802,2.2862,2.2857,2.2876,2.288,2.2883,2.2883,2.2782,2.2876,2.2876,2.2876,2.2876,2.2876,0,2.2048,2.2092,2.2157,2.2239,2.2294,2.2305,2.2371,2.2415,2.2483,2.2542,2.2602,2.2687,2.2757,2.2813,2.2885,2.2922,2.2931,2.294,2.2936,2.2945,2.2884,2.2866,2.2932,2.2932,2.2932,2.2932,2.2932,2.2932,2.2093,2.2173,2.2203,2.2308,2.2352,2.2428,2.2465,2.2515,2.2562,2.2656,2.2715,2.2752,2.281,2.2886,2.2951,2.2966,2.299,2.2998,2.3014,2.2956,2.2949,2.2943,2.2926,2.3003,2.3003,2.3069,2.307,2.307]},{"header":{"parameterUnit":"m.s-1","parameterCategory":1,"la1":30.2991,"la2":30.254,"lo1":-89.0895,"lo2":-89.0444,"dy":0.0017,"dx":0.0017,"nx":28,"ny":28,"refTime":"2024-08-13T09:00:00:Z","depth":0,"parameterNumber":3,"parameterNumberName":"V-component_of_WINDS"},"data":[0,0,0,0,0,0,0,0,0,0,0,0,0,0,0,0,0,0,0,0,0,0,0,0,0,0,0,0,0,0,0,0,0,0,0,0,0,0,0,0,0,0,0,0,0,0,0,0,0,0,0,0,0,0,0,0,0,0,3.4949,3.4949,0,3.4921,3.4921,3.4921,3.4862,3.486,3.4859,3.4858,3.4829,3.4829,3.483,0,0,0,0,0,0,0,0,0,0,0,0,0,3.4951,3.4952,3.4949,3.4949,3.4948,3.4921,3.4921,3.4921,3.4862,3.486,3.4859,3.4858,3.4829,3.4829,3.483,0,0,0,0,0,0,0,0,0,0,0,0,0,3.494,3.4952,3.4949,3.4916,3.4912,3.4921,3.4921,3.492,3.4862,3.486,3.4859,3.4857,3.4829,3.4829,3.483,3.4869,0,0,3.4831,3.4831,0,0,0,0,0,0,0,0,3.494,3.494,3.4921,3.4918,3.4914,3.4893,3.4911,3.4903,3.4863,3.4881,3.4858,3.4856,3.4852,3.485,3.4849,3.4867,3.4866,3.4831,3.4832,3.4832,3.4832,0,0,0,0,0,0,0,3.4941,3.494,3.4938,3.4921,3.4917,3.4902,3.4899,3.4909,3.4877,3.4879,3.4875,3.4873,3.485,3.4849,3.4848,3.4865,3.4831,3.4832,3.4832,3.4832,3.4915,3.4917,0,0,0,0,0,0,3.4947,3.4942,3.4939,3.4937,3.4923,3.4904,3.49,3.4902,3.4876,3.4871,3.4874,3.487,3.4849,3.4847,3.4847,3.4891,3.4832,3.4832,3.4833,3.4913,3.4916,3.4918,0,0,0,0,0,0,3.4947,3.4947,3.494,3.4938,3.4936,3.4906,3.4908,3.4902,3.4901,3.4873,3.4866,3.4879,3.4847,3.4846,3.4864,3.4889,3.4832,3.4833,3.4911,3.4914,3.4917,3.4979,0,0,0,0,0,0,3.4948,3.4948,3.4962,3.4939,3.4936,3.4958,3.491,3.4903,3.4902,3.4896,3.4876,3.487,3.4846,3.4863,3.4864,3.4888,3.4833,3.4909,3.4913,3.4916,3.4975,3.4984,3.4992,0,0,0,0,0,3.4948,3.498,3.4963,3.4963,3.4954,3.4959,3.4958,3.4929,3.4904,3.4918,3.4901,3.4871,3.4886,3.4866,3.4866,3.4891,3.4907,3.4911,3.4916,3.4971,3.4982,3.4991,0,0,0,0,0,0,3.5006,3.4976,3.4957,3.4983,3.4974,3.4949,3.4966,3.4941,3.4939,3.4934,3.4898,3.4894,3.4917,3.4906,3.4883,3.4928,3.4892,3.4897,3.4934,3.4944,3.4952,3.4954,3.4834,0,0,0,0,0,3.5022,3.5029,3.5003,3.5028,3.5025,3.4997,3.4998,3.4977,3.4966,3.4962,3.4945,3.4936,3.4938,3.4941,3.4942,3.4973,3.4968,3.4991,3.4999,3.5006,3.501,3.5027,3.5037,3.4932,3.4932,3.4932,0,0,3.5054,3.5039,3.5046,3.5039,3.503,3.5038,3.4994,3.5004,3.501,3.4963,3.4979,3.4967,3.4954,3.498,3.499,3.4971,3.5039,3.5012,3.5018,3.5018,3.5033,3.5043,3.5052,3.4935,3.4934,3.4934,0,0,3.5118,3.5107,3.5127,3.512,3.5107,3.5088,3.5093,3.5072,3.5063,3.5079,3.5044,3.5051,3.5056,3.5049,3.5046,3.5109,3.5082,3.5111,3.5154,3.5171,3.5179,3.5187,3.5209,3.5218,3.5115,3.5115,3.5115,0,3.5159,3.5171,3.5141,3.5154,3.5152,3.5112,3.5132,3.5126,3.5114,3.5114,3.5094,3.51,3.5089,3.5112,3.5128,3.5127,3.5132,3.5112,3.5181,3.5188,3.5194,3.5215,3.5224,3.5119,3.5118,3.5118,3.5118,0,3.5223,3.5232,3.525,3.524,3.5241,3.5258,3.523,3.5235,3.5214,3.5198,3.5215,3.5201,3.5198,3.5203,3.5182,3.5224,3.5213,3.5187,3.515,3.5208,3.5227,3.5235,3.5124,3.5123,3.5122,3.5121,0,0,3.532,3.5295,3.5302,3.5298,3.5282,3.5288,3.5304,3.5302,3.5307,3.5301,3.5313,3.5319,3.5296,3.5293,3.5272,3.5287,3.5339,3.5259,3.5258,3.5274,3.5384,3.5403,3.5413,3.5321,3.5323,3.5324,3.5385,0,3.5379,3.5404,3.5379,3.5409,3.5417,3.538,3.5394,3.5385,3.5371,3.5376,3.536,3.5366,3.5335,3.5333,3.5346,3.5329,3.536,3.5325,3.5332,3.5333,3.5336,3.5423,3.5443,3.5501,3.5392,3.5394,3.5395,0,3.545,3.5449,3.548,3.5464,3.5466,3.5479,3.5476,3.5482,3.5472,3.5461,3.5459,3.5434,3.5448,3.5414,3.5433,3.541,3.5412,3.5405,3.5406,3.5405,3.5367,3.5424,3.5519,3.5528,3.5406,3.5405,3.5404,0,3.5518,3.5524,3.5543,3.5541,3.5522,3.5532,3.5525,3.5514,3.5515,3.5513,3.5514,3.5513,3.5513,3.5513,3.5489,3.5466,3.5513,3.5475,3.5504,3.5504,3.5514,3.5513,3.561,3.5516,3.5516,3.5516,3.5516,0,3.5586,3.5606,3.5573,3.5586,3.5608,3.5579,3.5603,3.5591,3.5582,3.5592,3.556,3.557,3.5538,3.5544,3.5525,3.5545,3.5545,3.5537,3.5531,3.5539,3.554,3.5539,3.5534,3.5518,3.5518,3.5517,3.5517,0,3.5664,3.5643,3.5662,3.5644,3.564,3.5657,3.5641,3.5652,3.5637,3.5649,3.5651,3.5627,3.5633,3.561,3.5611,3.5599,3.5628,3.5616,3.5632,3.5628,3.5657,3.5655,3.5756,3.5768,3.5667,3.5668,3.5669,0,3.5708,3.5723,3.5708,3.5712,3.5707,3.5714,3.5716,3.5689,3.5692,3.5684,3.5696,3.57,3.5701,3.5713,3.5696,3.5698,3.5685,3.5721,3.5685,3.5693,3.5686,3.5685,3.5687,3.5728,3.5729,3.573,3.5731,0,3.5789,3.5779,3.5782,3.5784,3.5787,3.5786,3.5783,3.5789,3.576,3.5765,3.5772,3.5773,3.5776,3.578,3.5779,3.5771,3.5747,3.5743,3.5749,3.5757,3.5765,3.5761,3.5651,3.574,3.5739,3.5738,3.5738,3.5738,3.5851,3.5864,3.5855,3.5861,3.5856,3.5855,3.5865,3.5852,3.5857,3.5857,3.5842,3.5852,3.5844,3.5839,3.5835,3.5842,3.5826,3.5835,3.5837,3.584,3.5845,3.5765,3.5842,3.5841,3.5841,3.5841,3.5841,0,3.5931,3.5924,3.593,3.5928,3.5933,3.591,3.5907,3.5912,3.5922,3.5917,3.5919,3.5928,3.5933,3.5917,3.5919,3.5929,3.5917,3.593,3.5929,3.5928,3.586,3.5854,3.5939,3.5939,3.5939,3.5939,3.5939,3.5939,3.5972,3.5993,3.5982,3.6,3.5992,3.6003,3.6003,3.6002,3.5997,3.6009,3.6013,3.6003,3.5994,3.5996,3.5999,3.5995,3.5997,3.6014,3.6005,3.5942,3.5932,3.5923,3.5917,3.6015,3.6015,3.6072,3.6073,3.6073]}]]